sat.trackr.live / text

‹ back to catalog

STARLINK-37136

NORAD 68347 · 2026-059AC

PAYLOAD ACTIVE UNKNOWN

§ Identity

Operator
Country
US
Launch date
2026-03-22
Launch site
AFETR
Launch vehicle
Mass (kg)
RCS (m²)

Purposes: comms

External: N2YO · Heavens-Above · Gunter

§ Orbital elements

Epoch: 2026-05-24T22:24:48.237696Z

Period
94.11 min
Inclination
53.1576°
Eccentricity
0.0001096
Mean motion
15.30204820 rev/d
Perigee alt
474.4 km
Apogee alt
476.0 km
Semi-major
6,853.3 km
B*
6.7018e-4
RAAN
353.7795°
Arg perigee
92.3007°
Mean anomaly
267.8120°
Rev number
985

§ Raw data

STARLINK-371361 68347U 26059AC  26144.93389164  .00019545  00000+0  67018-3 0  99982 68347  53.1576 353.7795 0001096  92.3007 267.8120 15.30204820  9856

JSON: /api/v1/satellites/68347 · /tle

For live sub-satellite position, see the globe view (requires WebGL).

§ Visibility from observer

Set your observer location to see the next 7 days of passes ≥ 10°. The values pass through the URL so the page stays shareable.

No JS? Fill the form by hand. The geolocation button needs JavaScript.